Regional Weather Roundup
Issued by NWS

Home | Current Version | Previous Version | Graphics & Text | Print | Product List | Glossary On
Versions: 1 2 3 4 5 6 7 8 9 10 11 12 13 14 15 16 17 18 19 20 21 22 23 24 25 26 27 28 29 30 31 32 33 34 35 36 37 38 39 40 41 42 43 44 45 46 47 48 49 50
000
ASUS43 KDMX 220407
RWRIA

WEATHER ROUNDUP FOR IOWA
NATIONAL WEATHER SERVICE DES MOINES IA
1100 PM CDT THU AUG 21 2014

NOTE: "FAIR" INDICATES FEW OR NO CLOUDS BELOW 12,000 FEET WITH NO
SIGNIFICANT WEATHER AND/OR OBSTRUCTIONS TO VISIBILITY.

* - THESE STATIONS ARE NOT NWS STATIONS...THUS NOT UNDER NWS
QUALITY CONTROL.  THEY ALSO DO NOT REPORT WEATHER SUCH
AS PRECIPITATION OR FOG.

IAZ001>003-012>014-020>022-031>034-043>046-220500-
   NORTHWEST IOWA

CITY           SKY/WX    TMP DP  RH WIND       PRES   REMARKS
CARROLL *      PTCLDY    73  73 100 SE3       29.88S
CHEROKEE *     PTCLDY    77  75  94 CALM      29.87S
DENISON *      CLEAR     75  75 100 SE5       29.86S
LE MARS *      PTCLDY    79  75  89 N3        29.88S HX  82
ORANGE CITY *  PTCLDY    81  72  74 N6        29.89S HX  84
SHELDON *      PTCLDY    73  73 100 CALM      29.88S
SIOUX CITY     CLEAR     78  74  87 CALM      29.86S HX  81
SPENCER        CLEAR     73  69  87 S8        29.87F
STORM LAKE *   CLEAR     75  75 100 S6        29.90S
$$

IAZ055>058-069>071-079>083-090>094-220500-
   SOUTHWEST IOWA

CITY           SKY/WX    TMP DP  RH WIND       PRES   REMARKS
ATLANTIC *     PTCLDY    77  75  94 NE3       29.87S
AUDUBON *      CLEAR     75  72  88 CALM      29.90S
CLARINDA *     PTCLDY    79  79 100 CALM      29.87S HX  83
COUNCIL BLFS * CLOUDY    81  79  94 E3        29.86S HX  89
CRESTON *      MOCLDY    79  77  94 E5        29.89S HX  83
HARLAN  *      CLEAR     75  75 100 CALM      29.90F
LAMONI         CLEAR     81  76  84 S8        29.88S HX  87
RED OAK *      CLOUDY    79  79 100 N3        29.86S HX  83
SHENANDOAH *   MOCLDY    79  79 100 NE3       29.86S HX  83
$$

IAZ047>049-059>061-072>074-084-220500-
   CENTRAL IOWA

CITY           SKY/WX    TMP DP  RH WIND       PRES   REMARKS
AMES           CLEAR     73  72  96 S5        29.88S
ANKENY *       CLEAR     75  75 100 MISG      29.88R
CHARITON *     CLOUDY    79  77  94 SE7       29.88S HX  83
DES MOINES     MOCLDY    82  76  81 SE5       29.88R HX  89
GRINNELL*      PTCLDY    77  73  88 S3        29.90R
KNOXVILLE *    CLOUDY    79  75  89 SE5       29.87S HX  82
MARSHALLTOWN   CLEAR     76  74  93 S5        29.88S
PELLA *        PTCLDY    81  75  83 SE3       29.89S HX  86
PERRY *          N/A     75  75 100 SE5       29.88F
$$

IAZ004>006-015-016-023>025-035-036-220500-
   NORTH CENTRAL IOWA

CITY           SKY/WX    TMP DP  RH WIND       PRES   REMARKS
ALGONA *       CLEAR     75  73  94 S6        29.87S
CLARION *      CLEAR     75  73  94 SE6       29.88R
ESTHERVILLE    CLEAR     71  70  96 N5        29.88R
FORT DODGE *   CLEAR     75  72  88 S3        29.89R
MASON CITY     PTCLDY    73  72  96 S7        29.89S
FOREST CITY *  CLEAR     75  73  94 S5        29.88R
IOWA FALLS *     N/A     75  72  88 SW6       29.89S
$$

IAZ007>011-017>019-026>030-037>042-050>054-066-220500-
   NORTHEAST IOWA

CITY           SKY/WX    TMP DP  RH WIND       PRES   REMARKS
CEDAR RAPIDS   CLEAR     73  73 100 SE3       29.89S FOG
CHARLES CITY * CLEAR     73  72  94 S6        29.90R
CLINTON *      MOCLDY    75  73  94 E7        29.94R
DECORAH *      MOCLDY    72  72 100 SE5       29.89R
DUBUQUE        MOCLDY    73  71  93 E6        29.92S
MONTICELLO *   PTCLDY    72  72 100 CALM      29.90S FOG
OELWEIN *      MOCLDY    73  73 100 S6        29.91S
WATERLOO       CLEAR     74  72  93 S6        29.87S
$$

IAZ064-065-067-068-078-220500-
   EAST CENTRAL IOWA

CITY           SKY/WX    TMP DP  RH WIND       PRES   REMARKS
DAVENPORT      PTCLDY    77  73  87 SE6       29.91R
IOWA CITY      CLEAR     75  75 100 CALM      29.90R
MT. PLEASANT * MOCLDY    79  75  89 S3        29.90S HX  82
MUSCATINE *    PTCLDY    75  75 100 CALM      29.89S
QUAD CITIES    PTCLDY    76  73  91 CALM      29.89S
$$

IAZ062-063-075>077-085>089-095>099-220500-
   SOUTHEAST IOWA

CITY           SKY/WX    TMP DP  RH WIND       PRES   REMARKS
BURLINGTON     LGT RAIN  78  76  93 S5        29.90R HX  81
FAIRFIELD *    MOCLDY    79  75  89 S5        29.90S HX  82
FORT MADISON * PTCLDY    79  79 100 CALM      29.92R HX  83
KEOKUK *       MOCLDY    81  77  89 S6        29.90R HX  88
OSKALOOSA *    MOCLDY    79  77  94 S6        29.89S HX  83
CENTERVILLE *  CLEAR     77  77 100 S5        29.91S
OTTUMWA        MOCLDY    78  75  90 S5        29.89S HX  81
WASHINGTON *   CLEAR     75  75 100 S7        29.89F
$$

ABBREVIATIONS USED IN REMARKS
   TC - TEMPERATURES IN CELSIUS
  WCI - WIND CHILL INDEX
   HX - HEAT INDEX
  VSB - VISIBILITY
$$



USA.gov is the U.S. government's official web portal to all federal, state and local government web resources and services.